Nogales, AZ

3:20 PM MST on December 09, 2016 (GMT -0700)
Nogales International

Weather History for KOLS - April, 2013

Change the Weather History Date:

Saturday, April 6, 2013

  Actual Average (KFHU) Record (KFHU)
Temperature  
Mean Temperature 66 °F -  
Max Temperature 82 °F 68 °F 91 °F (1989)
Min Temperature 51 °F 46 °F 33 °F (1983)
Cooling Degree Days 2    
Growing Degree Days 16 (Base 50)    
Moisture  
Dew Point 29 °F    
Average Humidity 27    
Maximum Humidity 46    
Minimum Humidity 12    
Precipitation  
Precipitation 0.00 in - - ()
Sea Level Pressure  
Sea Level Pressure 29.85 in    
Wind  
Wind Speed 5 mph (SSW)    
Max Wind Speed 16 mph    
Max Gust Speed 24 mph    
Visibility 10 miles    
Events      
Averages and records for this station are not official NWS values.
T = Trace of Precipitation, MM = Missing Value Source: NWS Daily Summary

Daily Weather History Graph

Daily Weather History Graph

Search for Another Location

Airport or City:

Trip Planner

Search our weather history database for the weather conditions in past years. The results will help you decide how hot, cold, wet, or windy it might be!

Date:

Astronomy

Apr. 06, 2013 Rise Set
Actual Time 6:05 AM MST 6:46 PM MST
Civil Twilight 5:40 AM MST 7:10 PM MST
Nautical Twilight 5:11 AM MST 7:39 PM MST
Astronomical Twilight 4:42 AM MST 8:09 PM MST
Moon 3:37 AM MST (4/6) 3:30 PM MST (4/6)
Length of Visible Light 13h 30m
Length of Day
12h 40m
Waning Crescent, 14% of the Moon is Illuminated
Apr 6
Waning Crescent
Apr 10
New
Apr 18
First Quarter
Apr 25
Full
May 2
Last Quarter

Hourly Weather History & Observations

Time (MST) Temp. Dew Point Humidity Pressure Visibility Wind Dir Wind Speed Gust Speed Precip Events Conditions
12:54 AM 61.0 °F 32.0 °F 34% 29.87 in 10.0 mi SSE 5.8 mph - N/A   Clear
1:54 AM 54.0 °F 32.0 °F 43% 29.87 in 10.0 mi Calm Calm - N/A   Clear
2:54 AM 57.0 °F 30.9 °F 37% 29.85 in 10.0 mi South 3.5 mph - N/A   Clear
3:54 AM 55.0 °F 30.9 °F 40% 29.84 in 10.0 mi ESE 4.6 mph - N/A   Clear
4:54 AM 52.0 °F 30.9 °F 45% 29.86 in 10.0 mi NE 5.8 mph - N/A   Clear
5:54 AM 51.1 °F 30.9 °F 46% 29.88 in 10.0 mi East 6.9 mph - N/A   Clear
6:54 AM 54.0 °F 30.9 °F 41% 29.90 in 10.0 mi Calm Calm - N/A   Clear
7:54 AM 60.1 °F 30.9 °F 33% 29.92 in 10.0 mi Calm Calm - N/A   Clear
8:54 AM 66.9 °F 34.0 °F 30% 29.92 in 10.0 mi SSW 3.5 mph - N/A   Clear
9:54 AM 70.0 °F 34.0 °F 27% 29.91 in 10.0 mi Variable 5.8 mph - N/A   Clear
10:54 AM 75.0 °F 30.9 °F 20% 29.89 in 10.0 mi Variable 6.9 mph - N/A   Clear
11:54 AM 75.9 °F 30.9 °F 19% 29.87 in 10.0 mi Calm Calm - N/A   Clear
12:54 PM 79.0 °F 28.9 °F 16% 29.83 in 10.0 mi South 8.1 mph - N/A   Clear
1:54 PM 81.0 °F 25.0 °F 13% 29.82 in 10.0 mi SW 12.7 mph 24.2 mph N/A   Clear
2:54 PM 81.0 °F 26.1 °F 13% 29.80 in 10.0 mi SSW 11.5 mph 23.0 mph N/A   Clear
3:54 PM 82.0 °F 24.1 °F 12% 29.79 in 10.0 mi West 16.1 mph 23.0 mph N/A   Clear
4:54 PM 79.0 °F 25.0 °F 14% 29.79 in 10.0 mi West 10.4 mph - N/A   Clear
5:54 PM 78.1 °F 25.0 °F 14% 29.80 in 10.0 mi SW 10.4 mph - N/A   Clear
6:54 PM 73.9 °F 25.0 °F 16% 29.81 in 10.0 mi WSW 9.2 mph - N/A   Clear
7:54 PM 68.0 °F 25.0 °F 20% 29.81 in 10.0 mi SW 3.5 mph - N/A   Clear
8:54 PM 64.9 °F 26.1 °F 23% 29.82 in 10.0 mi South 3.5 mph - N/A   Clear
9:54 PM 64.0 °F 28.9 °F 27% 29.83 in 10.0 mi South 5.8 mph - N/A   Clear
10:54 PM 60.1 °F 30.0 °F 32% 29.83 in 10.0 mi East 4.6 mph - N/A   Clear
11:54 PM 59.0 °F 30.9 °F 35% 29.83 in 10.0 mi Calm Calm - N/A   Clear